FW6401 Weather Reports


time (UTC)temp
F
wind
direction
speed
knots
gust
knots
rain 1hr
in
rain 24hr
in
rain mn
in
humidity
%
barometer
mb
20260505184512 77 136 12.2 26.9 0.00 0.00 0.00 39 1002.3
20260505183011 77 234 7.8 15.6 0.00 0.00 0.00 39 1002.6
20260505181509 76 180 7.0 17.4 0.00 0.00 0.00 40 1002.9
20260505180008 75 182 8.7 22.6 0.00 0.00 0.00 42 1002.9
20260505174506 76 188 9.6 20.0 0.00 0.00 0.00 41 1003.3
20260505173004 75 201 8.7 18.2 0.00 0.00 0.00 43 1003.3
20260505171506 75 215 3.5 25.2 0.00 0.00 0.00 45 1003.7
20260505170002 75 287 11.3 24.3 0.00 0.06 0.00 45 1003.7
20260505164601 74 244 7.8 15.6 0.00 0.06 0.00 49 1004.4
20260505163102 73 240 14.8 25.2 0.00 0.06 0.00 47 1004.5
20260505161603 73 216 11.3 20.9 0.00 0.06 0.00 49 1004.8
20260505153047 70 217 4.3 13.9 0.00 0.10 0.00 54 1005.5
20260505151546 72 252 9.6 19.1 0.00 0.10 0.00 50 1005.9
20260505124526 66 228 8.7 16.5 0.00 0.10 0.00 56 1006.0
20260505123021 64 215 5.2 11.3 0.00 0.10 0.00 59 1006.3
20260505121530 62 201 5.2 12.2 0.00 0.10 0.00 61 1006.1
20260505120014 59 173 2.6 8.7 0.00 0.10 0.00 67 1006.4
20260505114510 55 178 3.5 7.0 0.00 0.10 0.00 73 1006.3
20260505113008 53 137 1.7 4.3 0.00 0.10 0.00 82 1006.6
20260505111508 52 298 0.9 2.6 0.00 0.10 0.00 81 1006.6
20260505101504 49 178 3.5 7.0 0.00 0.10 0.00 77 1006.4
20260505100009 50 216 2.6 7.0 0.00 0.10 0.00 76 1006.4
20260505094501 53 194 7.0 16.5 0.00 0.10 0.00 69 1006.5
20260505093102 51 177 3.5 9.6 0.00 0.10 0.00 73 1006.7
20260505091611 51 165 5.2 8.7 0.00 0.10 0.00 72 1006.6
20260505090105 51 185 3.5 8.7 0.00 0.10 0.00 72 1006.8
20260505084559 52 190 2.6 6.1 0.00 0.10 0.00 71 1006.8
20260505083101 52 137 3.5 9.6 0.00 0.10 0.00 70 1007.0
20260505081559 49 192 4.3 8.7 0.00 0.10 0.00 75 1007.1
20260505080052 50 181 4.3 8.7 0.00 0.10 0.00 72 1007.2
20260505074551 50 184 3.5 7.0 0.00 0.10 0.00 72 1007.2
20260505073049 50 190 5.2 8.7 0.00 0.10 0.00 71 1007.2
20260505071551 51 165 5.2 8.7 0.00 0.10 0.00 70 1007.1
20260505070047 51 172 5.2 7.8 0.00 0.10 0.00 70 1007.4
20260505064549 51 182 2.6 7.0 0.00 0.10 0.00 70 1007.4
20260505063045 51 180 3.5 7.0 0.00 0.10 0.00 69 1007.6
20260505061543 51 191 4.3 7.8 0.00 0.10 0.00 70 1007.7
20260505060041 50 168 4.3 7.0 0.00 0.10 0.00 71 1007.5
20260505054546 49 174 4.3 7.8 0.00 0.10 0.00 74 1007.3
20260505053037 47 165 3.5 6.1 0.00 0.10 0.00 78 1007.5
20260505051537 46 161 3.5 6.1 0.00 0.10 0.00 82 1007.6
20260505041527 47 160 3.5 6.1 0.00 0.10 0.00 79 1007.5
20260505040023 49 154 3.5 6.1 0.00 0.10 0.00 76 1007.3
20260505034524 51 175 3.5 8.7 0.00 0.10 0.10 73 1007.1
20260505033033 55 190 3.5 7.8 0.00 0.10 0.10 65 1007.2
20260505031522 53 180 4.3 7.0 0.00 0.10 0.10 68 1007.1
20260505030021 55 190 4.3 7.8 0.00 0.10 0.10 64 1007.0
20260505024527 56 198 4.3 9.6 0.00 0.10 0.10 59 1007.1
20260505023028 57 175 3.5 10.4 0.00 0.10 0.10 58 1007.1
20260505021519 59 209 6.1 9.6 0.00 0.10 0.10 51 1007.2
20260505020020 60 165 6.1 14.8 0.00 0.10 0.10 49 1007.4
20260505014532 61 151 5.2 13.9 0.00 0.10 0.10 47 1007.3
20260505013018 61 225 6.1 13.9 0.00 0.10 0.10 49 1007.3
20260505011517 60 226 7.8 15.6 0.00 0.10 0.10 49 1007.3
20260505010020 60 193 7.0 13.9 0.00 0.10 0.10 50 1007.2
20260505004518 61 198 7.0 17.4 0.00 0.10 0.10 50 1007.0
20260505003015 60 177 5.2 13.0 0.00 0.10 0.10 50 1006.7
20260505001515 59 195 5.2 10.4 0.00 0.10 0.10 52 1006.6
20260505000015 59 188 3.5 10.4 0.00 0.10 0.10 60 1006.4
20260504234512 60 213 3.5 8.7 0.00 0.10 0.10 55 1006.2
20260504233012 61 217 2.6 8.7 0.00 0.10 0.10 51 1006.0
20260504231511 61 190 3.5 8.7 0.00 0.10 0.10 53 1005.9
20260504230011 61 182 1.7 3.5 0.00 0.10 0.10 59 1005.7
20260504224510 62 289 0.9 3.5 0.00 0.10 0.10 54 1005.6
20260504223010 63 309 1.7 7.0 0.00 0.10 0.10 50 1005.5
20260504221511 63 341 1.7 10.4 0.00 0.10 0.10 50 1005.5
20260504220009 63 324 4.3 10.4 0.00 0.10 0.10 50 1005.5
20260504214507 62 295 6.1 13.0 0.00 0.10 0.10 52 1005.6
20260504213009 63 321 5.2 9.6 0.00 0.10 0.10 55 1005.6
20260504211513 62 266 4.3 8.7 0.00 0.10 0.10 57 1005.8
20260504210107 61 320 3.5 11.3 0.00 0.10 0.10 60 1005.8
20260504204618 60 319 4.3 8.7 0.00 0.10 0.10 61 1005.9
20260504203129 60 292 3.5 8.7 0.00 0.10 0.10 62 1006.1
20260504201553 59 349 6.1 10.4 0.00 0.10 0.10 66 1006.1
20260504200052 58 298 1.7 9.6 0.00 0.10 0.10 66 1006.2
20260504194548 57 300 3.5 11.3 0.00 0.10 0.10 68 1006.4
20260504193045 56 276 5.2 9.6 0.00 0.10 0.10 69 1006.7
20260504191543 55 314 7.8 12.2 0.00 0.10 0.10 74 1006.9
20260504190039 54 302 4.3 9.6 0.00 0.10 0.10 75 1007.1